Location: Newark
(52.3500°N, 175.9667°E)
Time: 16:09:20
(UTC+00:00)

N. Korean satellite - Pass Details

Date: 24 November 2019
Orbit: 456 x 506 km, 97.2° (Epoch: 09 December)

Event Time Altitude Azimuth Distance (km) Brightness Sun altitude
Rises 18:05:55 0° 16° (NNE) 2,616 10.3 -15.7°
Reaches altitude 10° 18:08:03 10° 20° (NNE) 1,721 9.4 -15.4°
Maximum altitude 18:11:43 60° 101° (E) 573 7.2 -14.9°
Drops below altitude 10° 18:15:19 10° 182° (S) 1,681 9.5 -14.3°
Sets 18:17:22 0° 186° (S) 2,549 10.3 -14.0°
